Flight Track Log - Related Links

Times and Time Zones

All times are in EDT time to prevent confusion due to time zone crossing. See the JBU56 flight status page for this flight to view local times or setup timezone preferences in your user account.

Time Position Orientation Groundspeed Altitude Reporting Facility
EDT Latitude Longitude Course Direction KTS MPH feet Rate Location/Type
Thu 08:35:02 AM 38.9667 -77.5333 90° East 197 227 2,400  Level Potomac TRACON
Thu 08:35:56 AM 39.0333 -77.5333 360° North 243 280 4,700 2,975 Climbing Potomac TRACON
Thu 08:37:00 AM 39.0070 -77.0782 77° East  Level FlightAware Approximate
Thu 08:37:03 AM 39.1000 -77.5000 21° North 286 329 8,400  Level Potomac TRACON
Thu 08:37:57 AM 39.1500 -77.4167 52° Northeast 311 358 10,100 1,526 Climbing Potomac TRACON
Thu 08:38:00 AM 39.0308 -76.9475 77° East  Level FlightAware Approximate
Thu 08:38:57 AM 39.1500 -77.3000 90° East 353 406 11,300  Level Potomac TRACON
Thu 08:39:00 AM 39.0529 -76.8163 78° East  Level FlightAware Approximate
Thu 08:40:00 AM 39.0667 -76.6839 90° East  Level FlightAware Approximate
Thu 08:40:03 AM 39.1175 -77.1967 112° Southeast 369 425 13,500  Level Washington Center
Thu 08:41:04 AM 39.0839 -77.0544 107° East 387 445 16,400 2,459 Climbing Washington Center
Thu 08:42:05 AM 39.0792 -76.9178 93° East 387 445 18,500 1,916 Climbing Washington Center
Thu 08:43:03 AM 39.0994 -76.7711 80° East 387 445 20,200 1,831 Climbing Washington Center
Thu 08:44:03 AM 39.1133 -76.6136 83° East 419 482 22,100 1,400 Climbing Washington Center
Thu 08:45:03 AM 39.1292 -76.4506 83° East 442 509 23,000 446 Climbing Washington Center
Thu 08:46:04 AM 39.1447 -76.2900 83° East 452 520 23,000 1,082 Level Washington Center
Thu 08:47:05 AM 39.2269 -76.1356 55° Northeast 446 513 25,200 1,866 Climbing Washington Center
Thu 08:48:03 AM 39.3067 -76.0019 52° Northeast 453 521 26,700 1,412 Climbing Washington Center
Thu 08:49:04 AM 39.3883 -75.8656 52° Northeast 465 535 28,000 1,190 Climbing Washington Center
Thu 08:50:04 AM 39.4739 -75.7261 51° Northeast 481 554 29,100 952 Climbing Washington Center
Thu 08:52:13 AM 39.6611 -75.4200 51° Northeast 489 563 31,000 603 Climbing New York Center
Thu 08:53:13 AM 39.7439 -75.2797 52° Northeast 489 563 31,000  Level New York Center
Thu 08:54:13 AM 39.8264 -75.1336 54° Northeast 496 571 31,000  Level New York Center
Thu 08:55:13 AM 39.9108 -74.9900 52° Northeast 496 571 31,000  Level New York Center
Thu 08:56:13 AM 39.9903 -74.8647 50° Northeast 496 571 31,000  Level New York Center
Thu 08:57:13 AM 40.0744 -74.7258 52° Northeast 496 571 31,000  Level New York Center
Thu 08:58:13 AM 40.1622 -74.5869 50° Northeast 496 571 31,000  Level New York Center
Thu 08:59:13 AM 40.2481 -74.4475 51° Northeast 496 571 31,000  Level New York Center
Thu 09:00:13 AM 40.3358 -74.3053 51° Northeast 496 571 31,000  Level New York Center
Thu 09:02:39 AM 40.5469 -73.9631 51° Northeast 498 573 31,000  Level Boston Center
Thu 09:03:40 AM 40.6336 -73.8200 51° Northeast 499 574 31,000 -148 Level Boston Center
Thu 09:04:41 AM 40.7183 -73.6761 52° Northeast 499 574 30,700 -1,426 Descending Boston Center
Thu 09:05:42 AM 40.8053 -73.5325 51° Northeast 500 575 28,100 -2,164 Descending Boston Center
Thu 09:06:43 AM 40.8847 -73.3867 54° Northeast 492 566 26,300 -1,525 Descending Boston Center
Thu 09:07:44 AM 40.9647 -73.2317 56° Northeast 476 548 25,000 -1,180 Descending Boston Center
Thu 09:08:45 AM 41.0381 -73.0872 56° Northeast 476 548 23,900 -976 Descending Boston Center
Thu 09:09:47 AM 41.1100 -72.9456 56° Northeast 468 539 23,000 -439 Descending Boston Center
Thu 09:10:48 AM 41.1814 -72.8069 56° Northeast 461 531 23,000  Level Boston Center
Thu 09:11:49 AM 41.2517 -72.6650 57° Northeast 461 531 23,000  Level Boston Center
Thu 09:12:50 AM 41.3364 -72.4975 56° Northeast 461 531 23,000 -148 Level Boston Center
Thu 09:13:51 AM 41.4069 -72.3533 57° Northeast 462 532 22,700 -984 Descending Boston Center
Thu 09:14:52 AM 41.4767 -72.2122 57° Northeast 460 529 21,000 -1,869 Descending Boston Center
Thu 09:15:53 AM 41.5361 -72.0558 63° Northeast 446 513 18,900 -1,672 Descending Boston Center
Thu 09:16:54 AM 41.5831 -71.9092 67° East 431 496 17,600 -1,805 Descending Boston Center
Thu 09:17:56 AM 41.6253 -71.7672 68° East 411 473 15,200 -2,000 Descending Boston Center
Thu 09:18:57 AM 41.6650 -71.6303 69° East 401 461 13,500 -1,721 Descending Boston Center
Thu 09:19:58 AM 41.7056 -71.4925 68° East 375 432 11,700 -1,230 Descending Boston Center
Thu 09:20:59 AM 41.7481 -71.3889 61° Northeast 317 365 11,000 -344 Descending Boston Center
Thu 09:22:00 AM 41.7958 -71.2964 55° Northeast 302 348 11,000 -341 Level Boston Center
Thu 09:23:02 AM 41.8728 -71.2394 29° Northeast 300 345 10,300 -976 Descending Boston Center
Thu 09:24:03 AM 41.9481 -71.2061 18° North 290 334 9,000 -1,426 Descending Boston Center
Thu 09:25:04 AM 42.0206 -71.1717 19° North 279 321 7,400 -1,574 Descending Boston Center
Thu 09:26:05 AM 42.0939 -71.1369 19° North 261 300 5,800 -1,377 Descending Boston Center
Thu 09:27:06 AM 42.1456 -71.1117 20° North 199 229 4,600 -1,024 Descending Boston Center
Thu 09:28:08 AM 42.1908 -71.0906 19° North 172 198 3,700 -878 Descending Boston Center
Thu 09:29:09 AM 42.2294 -71.0719 20° North 151 174 2,800 -885 Descending Boston Center
Thu 09:30:10 AM 42.2681 -71.0517 21° North 150 173 1,900 -787 Descending Boston Center
Thu 09:31:11 AM 42.3019 -71.0353 20° North 122 140 1,200 -683 Descending Boston Center
Thu 09:32:13 AM 42.3328 -71.0211 19° North 121 139 500 -439 Descending Boston Center
Thu 09:33:14 AM 42.3417 -71.0167 20° North 111 128 300 -197 Descending Boston Center

Login

Don't have an account? Register now (free) for customized features, flight alerts, and more!